Flag for Western Sahara Weather past 2 weeks in Smara, Western Sahara

Now
86 °F

Clear.


Feels Like: 85 °F
Forecast: 78 / 113 °F
Wind: 7 mph from Northeast

Location: Laayoune/Hassan Isl

Current Time: Jul 7, 2015 at 5:27:14 AM

Latest Report: Jul 7, 2015 at 5:00 AM


Visibility: 5 mi

Pressure: 29.86 "Hg

Humidity: 35%

Dew point: 55 °F

Location of SmaraLocation

Historic Weather in Smara — Graph

°F

Smara temperature yesterday

Maximum temperature yesterday: 95 °F (at 2:00 PM)
Minimum temperature yesterday: 68 °F (at 12:00 AM)
Average temperature yesterday: 80 °F

Past Weeks' High & Low Weather Summary

 TemperatureHumidityPressure
High95 °F (Jul 6, 2:00 PM)88% (Jun 25, 4:00 AM)30.15 "Hg (Jun 25, 4:00 AM)
Low64 °F (Jun 24, 3:00 AM)20% (Jul 7, 1:00 AM)29.74 "Hg (Jul 1, 6:15 AM)
Average74 °F64%30.03 "Hg
* Reported Jun 22 4:00 AM — Jul 7 4:00 AM, Smara, Weather by CustomWeather, © 2015

Note: Actual official high and low records may vary slightly from our data, if they occured in-between our weather recording intervals... More about our weather records

Advertising

Smara weather history for previous 24 hours

 ConditionsComfort  
Time TempWeatherWind HumidityBarometerVisibility
4:00 AM
Tue, Jul 7
86 °FClear.3 mph33%29.83 "Hg5 mi
3:00 AM86 °FClear.9 mph38%29.83 "Hg5 mi
2:00 AM86 °FClear.12 mph38%29.83 "Hg3 mi
1:00 AM95 °FPassing clouds.14 mph20%29.83 "Hg3 mi
11:00 PM
Mon, Jul 6
81 °FPassing clouds.23 mph54%29.83 "HgN/A
10:00 PM81 °FClear.20 mph54%29.80 "Hg10 mi
9:00 PM81 °FClear.20 mph54%29.80 "Hg5 mi
8:00 PM82 °FClear.26 mph55%29.80 "Hg5 mi
7:00 PM86 °FClear.26 mph46%29.77 "Hg5 mi
6:00 PM88 °FSunny.26 mph46%29.77 "Hg10 mi
5:00 PM90 °FClear.25 mph43%29.77 "Hg5 mi
4:00 PM95 °FSunny.22 mph34%29.77 "Hg5 mi
3:00 PM95 °FClear.21 mph34%29.80 "Hg5 mi
2:00 PM95 °FClear.21 mph34%29.83 "Hg5 mi
1:00 PM93 °FClear.17 mph39%29.83 "Hg5 mi
12:00 PM90 °FSunny.14 mph41%29.86 "Hg10 mi
11:00 AM84 °FSunny.17 mph51%29.86 "Hg10 mi
10:00 AM79 °FSunny.17 mph65%29.86 "Hg10 mi
9:00 AM73 °FScattered clouds.17 mph78%29.86 "Hg5 mi
8:00 AM70 °FPartly sunny.22 mph88%29.86 "Hg5 mi
7:00 AM70 °FPassing clouds.15 mph88%29.83 "Hg4 mi
6:00 AM68 °FPassing clouds.16 mph88%29.83 "Hg4 mi
5:00 AM70 °FPassing clouds.13 mph83%29.83 "Hg4 mi
Weather by CustomWeather, © 2015

See weather overviewHow to use our weather pages